Regional Weather Roundup
Issued by NWS

Home | Current Version | Previous Version | Graphics & Text | Print | Product List | Glossary On
Versions: 1 2 3 4 5 6 7 8 9 10 11 12 13 14 15 16 17 18 19 20 21 22 23 24 25 26 27 28 29 30 31 32 33 34 35 36 37 38 39 40 41 42 43 44 45 46 47 48 49 50
000
ASUS43 KLOT 200303
RWRIL

ILLINOIS REGIONAL WEATHER ROUNDUP
NATIONAL WEATHER SERVICE CHICAGO/ROMEOVILLE IL
900 PM CST SUN FEB 19 2017

NOTE: "FAIR" INDICATES FEW OR NO CLOUDS BELOW 12,000 FEET WITH NO
SIGNIFICANT WEATHER AND/OR OBSTRUCTIONS TO VISIBILITY.

* THESE STATIONS ARE NOT UNDER NWS QUALITY CONTROL. THEY ALSO MAY NOT
  REPORT WEATHER SUCH AS PRECIPITATION OR FOG.

ILZ001-002-007-009-015-016-024-200400-
NORTHWEST ILLINOIS

CITY           SKY/WX    TMP DP  RH WIND       PRES   REMARKS
MOLINE         PTCLDY    58  44  60 SE8       30.01R
STERLING*      MOCLDY    53  42  66 SE8       30.04R
SAVANNA*       PTCLDY    52  39  61 S6        30.03R
$$

ILZ003-004-008-010-011-017-018-200400-
NORTH CENTRAL ILLINOIS

CITY           SKY/WX    TMP DP  RH WIND       PRES   REMARKS
ROCKFORD       PTCLDY    51  39  63 SE8       30.07R
FREEPORT*      CLOUDY    40  34  78 SE8       30.06R
ROCHELLE*      MOCLDY    44  37  77 SE9       30.06R
DE KALB*       MOCLDY    52  42  69 SE12      30.08R
PERU*          PTCLDY    54  38  54 SE9       30.06R
$$

ILZ005-006-012>014-019>023-200400-
NORTHEAST ILLINOIS

CITY           SKY/WX    TMP DP  RH WIND       PRES   REMARKS
CHICAGO-OHARE  MOCLDY    45  30  55 SE7       30.08R
CHICAGO-MIDWAY CLOUDY    50  30  46 E3        30.09R
AURORA         PTCLDY    50  41  71 SE7       30.07R
LANSING*       CLOUDY    47  40  78 E5        30.10R
JOLIET*        MOCLDY    53  45  73 SE6       30.08S
WAUKEGAN       PTCLDY    37  31  78 E3        30.09R
DUPAGE AIRPORT PTCLDY    51  37  58 SE5       30.07R
KANKAKEE*      CLOUDY    49  41  73 CALM      30.10R
WHEELING       PTCLDY    42  31  64 CALM      30.10R
MORRIS*        CLOUDY    51  42  71 CALM      30.06S
ROMEOVILLE*    PTCLDY    49  44  82 SE8       30.08S
NORTHERLY ISL    N/A     43  30  60 S1          N/A
$$

LMZ740>746-200400-
SOUTHERN LAKE MICHIGAN

STATION/POSITION SKY/WX   TEMP    WIND        PRES    VSBY  WAVE
                          AIR SEA DIR/SP/G                  HT/PER
                          (F)     (DEG/KT/KT) (MB)    (MI)  (FT/S)
HARRISON CRIB              43     160/  5/  5   N/A
BURNHAM HARBOR             43      CALM  /  2   N/A
CALUMET HARBOR             41      70/  3/  4 1018.4R
BURNS HARBOR               52      CALM  /  2 1020.0R
MICHIGAN CITY              51     120/  3/  4   N/A
$$

ILZ025>027-034>036-040-047-049-050-058-095>099-200400-
WEST-CENTRAL ILLINOIS

CITY           SKY/WX    TMP DP  RH WIND       PRES   REMARKS
QUINCY         MOCLDY    58  49  72 SE10      30.01R
GALESBURG*     CLOUDY    57  46  67 SE7       30.03R
MACOMB*        CLOUDY    55  47  74 SE7       30.04R
JACKSONVILLE*  PTCLDY    55  49  82 SE5       30.05R
PITTSFIELD*    CLOUDY    57  51  81 SE7       30.05R
$$

ILZ028>032-037-038-041>044-048-051>054-059>061-200400-
CENTRAL ILLINOIS

CITY           SKY/WX    TMP DP  RH WIND       PRES   REMARKS
PONTIAC        PTCLDY    47  43  83 SE8       30.09R
BLOOMINGTON    PTCLDY    52  48  86 S9        30.09R
DECATUR        PTCLDY    50  47  89 S6        30.09R FOG
PEORIA         PTCLDY    59  48  67 S8        30.06R
LACON*         CLOUDY    54  42  64 SE9       30.05R
LINCOLN*       MOCLDY    52  49  89 CALM      30.07R
SPRINGFIELD    CLOUDY    57  50  77 SE12      30.06R
TAYLORVILLE    PTCLDY    52  49  92 SE9       30.08R FOG
$$

ILZ033-039-045-046-055>057-062-063-200400-
EAST-CENTRAL ILLINOIS

CITY           SKY/WX    TMP DP  RH WIND       PRES   REMARKS
CHAMPAIGN      PTCLDY    50  46  86 S8        30.10R
RANTOUL*       PTCLDY    50  47  91 S3        30.11R FOG
MATTOON        CLOUDY    49  49 100 S10       30.10R FOG
PARIS*         CLOUDY    45  44  98 S5        30.12R FOG
$$

ILZ079-100>102-200400-
SOUTHWEST ILLINOIS

CITY           SKY/WX    TMP DP  RH WIND       PRES   REMARKS
ALTON          CLEAR     54  52  94 SE12      30.07R
BELLEVILLE     PTCLDY    53  53 100 E5        30.07R
CAHOKIA*       PTCLDY    59  51  75 S8        30.07R
SPARTA*        CLOUDY    55  51  87 SE5       30.09R
$$

ILZ064>066-069>071-074>076-080>082-084>086-088>090-092>094-200400-
SOUTH-CENTRAL ILLINOIS

CITY           SKY/WX    TMP DP  RH WIND       PRES   REMARKS
CARBONDALE     PTCLDY    52  52 100 SE3       30.10R
CAIRO*         PTCLDY    49  49 100 CALM      30.10R FOG
EFFINGHAM*     CLOUDY    50  50 100 E7        30.12R FOG
MARION         CLEAR     52  52 100 SE3       30.11R
MT. VERNON     PTCLDY    50  49  96 E3        30.12R FOG
CENTRALIA*     MOCLDY    51  51  98 CALM      30.10R FOG
SALEM*         CLOUDY    54  51  92 SE8       30.11R FOG
METROPOLIS*    FOG       49  49  99 CALM      30.11R VSB<1/4
$$

ILZ067-068-072-073-078-083-087-091-200400-
SOUTHEAST ILLINOIS

CITY           SKY/WX    TMP DP  RH WIND       PRES   REMARKS
LAWRENCEVILLE  FOG       40  39  97 SE3       30.13R VSB<1/4
FLORA*         CLOUDY    52  51  95 SE5       30.12R FOG
FAIRFIELD*     FOG       49  49 100 CALM      30.12R VSB 3/4
HARRISBURG*    CLOUDY    51  50  98 CALM      30.12R FOG
ROBINSON*      FOG       39  39 100 CALM      30.13S VSB<1/4
CARMI*         FOG       42  42 100 CALM      30.13R VSB 1/4
$$

ABBREVIATIONS USED IN REMARKS
   TC - TEMPERATURE IN CELSIUS
  WCI - WIND CHILL INDEX
   HX - HEAT INDEX
  VSB - VISIBILITY
$$





USA.gov is the U.S. government's official web portal to all federal, state and local government web resources and services.